Погода в Навои

Узбекистан     40°01′05″N   64°44′29″E
темп.,
°C
ветер,
м/с
пор.,
м/с
влажн.,
%
обл.,
%
осадки,
мм/ч
давл.,
гПа
погр.,
м
3 марта, ср
ср323:00+9ссв694794 0.0 1024245
02:00+8с6856100 0.0 1024215
05:00+5ссв696690 0.0 1024190
08:00+4с576818 0.0 1024160
11:00+11ссз22419 0.0 1023427
14:00+14з34320 0.0 10211237
17:00+14сз33310 0.0 10201456
20:00+11с45400 0.0 1020136
4 марта, чт
чт423:00+9св44460 0.0 102077
02:00+8всв23470 0.0 101831
05:00+8вюв34500 0.0 101728
08:00+10юв4546100 0.0 101878
11:00+14ю344292 1.3 1017517
14:00+18ююз8104167 0.9 10161580
17:00+15сз10124179 1.1 1018938
20:00+10ссз8105685 0.1 10241051
5 марта, пт
пт523:00+7с787184 0.5 1027847
02:00+5с576920 0.0 1030360
05:00+4ссв477310 0.0 1030209
08:00+4ссв69690 0.0 1030224
11:00+10в45480 0.0 1028955
14:00+13вюв34270 0.0 10241353
17:00+14юв23230 0.0 10211031
20:00+12всв443134 0.0 101989
6 марта, сб
сб623:00+11в595067 0.0 1017211
02:00+10св4550100 0.0 1014110
05:00+11св81245100 0.0 1011265
08:00+8с7956100 0.1 1010207
11:00+9ссв7955100 0.3 1011288
14:00+11в61176100 1.5 1010674
17:00+12юв2470100 2.8 1011220
20:00+6ссз141774100 1.4 1015619
7 марта, вс
вс723:00+4з7991100 3.4 1018444
02:00+4з6887100 0.5 1019374
05:00+3зюз5789100 0.7 1020395
08:00+3зюз2472100 0.0 1021345
11:00+7ююз554492 0.0 1021936
14:00+10ю56327 0.0 10181172
17:00+12ю56303 0.0 10161254
20:00+10ююв45390 0.0 1016117